This demonstration page uses our WeatherBlox Daily Observations layout. Learn more.

39.92423, -83.80882

Hourly Observations for April 10, 2015

Temp ( °F °C ) Dew Point ( °F °C ) Humidity (%) Winds ( mph kmh ) Pressure ( in mb ) Visibility ( mi km ) Precip ( " mm )
12:56 am 00:56 Clear 70 21.1 62 16.6 76 76 SSW 17 28 29.72 1006 7 11.26538 0 0
1:56 am 01:56 Clear 70 21.1 62 16.6 76 76 SSW 20 31 29.71 1006 7 11.26538 0 0
2:56 am 02:56 Mostly Cloudy with Nearby Thunderstorms 70 21.1 62 16.6 76 76 SSW 18 30 29.68 1005 6 9.65604 0 0
3:20 am 03:20 Cloudy with Heavy Thunderstorms 66 19 64 18 94 94 W 18 30 29.68 1005 2 3.21868 0.08 2.032
3:23 am 03:23 Cloudy with Heavy Thunderstorms 66 19 64 18 94 94 WSW 17 28 29.68 1005 1.5 2.41401 0.13 3.302
3:29 am 03:29 Cloudy with Light Thunderstorms 66 19 64 18 94 94 SW 16 26 29.68 1005 2 3.21868 0.15 3.81
3:39 am 03:39 Cloudy with Thunderstorms 66 19 64 18 94 94 W 24 39 29.71 1006 1.5 2.41401 0.22 5.588
3:56 am 03:56 Cloudy with Nearby Thunderstorms 64 17.7 63 17.2 97 97 WSW 15 24 29.73 1007 2 3.21868 0.3 7.62
4:08 am 04:08 Mostly Cloudy with Light Thunderstorms 63 17 63 17 100 100 WSW 12 19 29.71 1006 4 6.43736 0.02 0.508
4:28 am 04:28 Mostly Cloudy with Light Rain 63 17 61 16 94 94 SW 9 15 29.65 1004 5 8.0467 0.04 1.016
4:39 am 04:39 Mostly Cloudy with Light Rain 63 17 61 16 94 94 SSW 12 19 29.65 1004 6 9.65604 0.04 1.016
4:56 am 04:56 Mostly Clear 63 17.2 61 16.1 93 93 SSW 15 24 29.66 1005 7 11.26538 0.05 1.27
5:40 am 05:40 Mostly Cloudy 63 17 61 16 94 94 WSW 13 20 29.65 1004 7 11.26538 0 0.0254
5:56 am 05:56 Cloudy 63 17.2 61 16.1 93 93 WSW 14 22 29.66 1004 7 11.26538 0 0.0254
6:09 am 06:09 Cloudy with Mist and Fog 63 17 61 16 94 94 W 23 37 29.65 1004 5 8.0467 0 0
6:56 am 06:56 Cloudy with Haze 58 14.4 53 11.6 83 83 W 23 37 29.74 1007 6 9.65604 0 0
7:21 am 07:21 Mostly Cloudy with Haze 55 13 52 11 88 88 W 17 28 29.74 1007 6 9.65604 0 0
7:56 am 07:56 Cloudy with Haze 55 12.7 49 9.4 81 81 WSW 28 44 29.77 1008 4 6.43736 0 0
8:11 am 08:11 Cloudy with Haze 55 13 48 9 77 77 W 17 28 29.77 1008 4 6.43736 0 0
8:56 am 08:56 Cloudy with Haze 52 11.1 46 7.7 80 80 W 21 33 29.83 1010 4 6.43736 0 0
9:36 am 09:36 Cloudy with Haze 50 10 43 6 76 76 W 25 41 29.85 1011 2.5 4.02335 0 0
9:56 am 09:56 Mostly Cloudy with Haze 50 10 42 5.5 74 74 W 26 43 29.85 1011 3 4.82802 0 0
10:56 am 10:56 Cloudy with Haze 49 9.4 42 5.5 77 77 W 24 39 29.94 1014 4 6.43736 0 0
11:56 am 11:56 Mostly Cloudy with Haze 51 10.5 43 6.1 74 74 W 24 39 29.93 1013 6 9.65604 0 0
12:56 pm 12:56 Cloudy with Haze 50 10 42 5.5 74 74 W 23 37 29.96 1015 6 9.65604 0 0
1:40 pm 13:40 Mostly Cloudy with Haze 54 12 45 7 72 72 W 21 33 29.97 1015 6 9.65604 0 0
1:56 pm 13:56 Hazy 53 11.6 44 6.6 72 72 W 18 30 29.96 1014 6 9.65604 0 0
2:56 pm 14:56 Hazy 57 13.8 43 6.1 60 60 W 17 28 29.97 1015 6 9.65604 0 0
3:56 pm 15:56 Hazy 59 15 42 5.5 53 53 W 18 30 29.97 1015 6 9.65604 0 0
4:56 pm 16:56 Hazy 60 15.5 40 4.4 48 48 W 20 31 29.97 1015 6 9.65604 0 0
5:56 pm 17:56 Hazy 61 16.1 41 5 48 48 W 12 19 29.97 1015 6 9.65604 0 0
6:56 pm 18:56 Hazy 60 15.5 40 4.4 48 48 WSW 17 28 29.98 1015 6 9.65604 0 0
7:56 pm 19:56 Hazy 56 13.3 41 5 57 57 WSW 10 17 29.98 1015 6 9.65604 0 0
8:56 pm 20:56 Clear 54 12.2 40 4.4 59 59 SW 10 17 29.99 1016 7 11.26538 0 0
9:56 pm 21:56 Clear 54 12.2 39 3.8 57 57 SSW 13 20 29.99 1016 7 11.26538 0 0
10:56 pm 22:56 Mostly Cloudy 55 12.7 40 4.4 57 57 SW 16 26 30.01 1016 7 11.26538 0 0
11:56 pm 23:56 Mostly Cloudy 54 12.2 38 3.3 55 55 WNW 17 28 30.05 1018 7 11.26538 0 0

Powered by AerisWeather